TimeEST,TemperatureF,Dew PointF,Humidity,Sea Level PressureIn,VisibilityMPH,Wind Direction,Wind SpeedMPH,Gust SpeedMPH,PrecipitationIn,Events,Conditions,WindDirDegrees,DateUTC
12:51 AM,35.1,28.0,76,30.24,-9999.0,SE,9.2,18.4,N/A,,Unknown,130,2012-11-10 05:51:00
1:51 AM,36.0,28.9,76,30.23,-9999.0,Variable,5.8,-,N/A,,Unknown,0,2012-11-10 06:51:00
2:51 AM,37.0,32.0,82,30.22,-9999.0,SE,6.9,-,N/A,,Unknown,140,2012-11-10 07:51:00
3:51 AM,37.0,30.0,76,30.20,-9999.0,Variable,6.9,-,N/A,,Unknown,0,2012-11-10 08:51:00
4:51 AM,37.0,30.9,79,30.18,-9999.0,SE,12.7,18.4,N/A,,Unknown,140,2012-11-10 09:51:00
5:51 AM,37.0,30.9,79,30.17,-9999.0,SE,8.1,21.9,N/A,,Unknown,140,2012-11-10 10:51:00
6:51 AM,37.0,30.9,79,30.16,-9999.0,SE,8.1,18.4,N/A,,Unknown,140,2012-11-10 11:51:00
7:51 AM,37.9,33.1,83,30.15,-9999.0,SSE,10.4,21.9,N/A,,Unknown,150,2012-11-10 12:51:00
8:51 AM,37.9,34.0,86,30.12,-9999.0,SSE,11.5,27.6,N/A,,Unknown,150,2012-11-10 13:51:00
9:51 AM,37.9,36.0,93,30.12,-9999.0,Variable,5.8,16.1,0.02,,Unknown,0,2012-11-10 14:51:00
10:51 AM,37.9,36.0,93,30.10,-9999.0,SSE,10.4,17.3,0.10,,Unknown,150,2012-11-10 15:51:00
11:51 AM,39.9,37.9,93,30.06,-9999.0,SSE,8.1,-,0.01,,Unknown,150,2012-11-10 16:51:00
12:51 PM,39.9,37.9,93,30.00,-9999.0,SSE,11.5,19.6,0.01,,Unknown,160,2012-11-10 17:51:00
1:51 PM,39.9,37.9,93,29.97,-9999.0,SSE,12.7,21.9,0.02,,Unknown,160,2012-11-10 18:51:00
2:51 PM,39.9,37.9,93,29.91,-9999.0,South,12.7,20.7,0.11,,Unknown,170,2012-11-10 19:51:00
3:51 PM,39.9,37.9,93,29.89,-9999.0,South,10.4,20.7,0.24,,Unknown,170,2012-11-10 20:51:00
4:51 PM,39.9,37.9,93,29.86,-9999.0,SSE,8.1,17.3,0.31,,Unknown,160,2012-11-10 21:51:00
5:51 PM,42.1,39.0,89,29.83,-9999.0,South,8.1,28.8,0.02,,Unknown,180,2012-11-10 22:51:00
9:52 PM,-9999,-9999,N/A,29.75,-9999.0,South,10.4,24.2,0.03,,Unknown,190,2012-11-11 02:52:00
10:51 PM,45.0,44.1,97,29.76,-9999.0,Variable,5.8,21.9,N/A,,Unknown,0,2012-11-11 03:51:00
11:51 PM,46.0,44.1,93,29.73,-9999.0,SSW,13.8,32.2,N/A,,Unknown,210,2012-11-11 04:51:00